sat.trackr.live / text

‹ back to catalog

FOREST-3

NORAD 62682 · 2025-009CB

PAYLOAD ACTIVE UNKNOWN

§ Identity

Operator
Country
GER
Launch date
2025-01-14
Launch site
AFWTR
Launch vehicle
Mass (kg)
RCS (m²)

External: N2YO · Heavens-Above · Gunter

§ Orbital elements

Epoch: 2026-05-25T04:40:01.843392Z

Period
94.46 min
Inclination
97.3905°
Eccentricity
0.0006436
Mean motion
15.24457051 rev/d
Perigee alt
488.0 km
Apogee alt
496.8 km
Semi-major
6,870.6 km
B*
2.2810e-4
RAAN
224.9643°
Arg perigee
74.1720°
Mean anomaly
286.0226°
Rev number
13,293

§ Raw data

FOREST-31 62682U 25009CB  26145.19446578  .00005532  00000+0  22810-3 0  99922 62682  97.3905 224.9643 0006436  74.1720 286.0226 15.24457051132937

JSON: /api/v1/satellites/62682 · /tle

For live sub-satellite position, see the globe view (requires WebGL).

§ Visibility from observer

Set your observer location to see the next 7 days of passes ≥ 10°. The values pass through the URL so the page stays shareable.

No JS? Fill the form by hand. The geolocation button needs JavaScript.